CAPE
0 0 0 0 0 0 0 0 0 0 0 0 0 0 0 0 0 0 0 0 0 0 0 0 0 0 0
0 0 0 0 0 0 0 0 0 0 0 0 0 0 0 0 0 0 0 0 0 0 0 0 0 0 0
0 0 0 0 0 0 0 0 0 0 0 0 0 0 0 0 0 0 0 0 0 0 0 0 0 0 0
0 0 0 0 0 0 0 0 0 0 0 0 0 0 0 0 0 0 0 0 0 0 0 0 0 0 0
0 0 0 0 0 0 0 0 0 0 0 0 0 0 0 0 0 0 0 0 0 0 0 0 0 0 0
0 0 0 0 0 0 0 0 0 0 0 0 0 0 0 0 0 0 0 0 0 0 0 0 0 0 0
0 0 0 0 0 0 0 0 0 0 0 0 0 0 0 0 0 0 0 0 0 0 0 0 0 0 0
0 0 0 0 0 0 0 0 0 0 0 0 0 0 0 0 0 0 0 0 0 0 0 0 0 0 0
0 0 0 0 0 0 0 0 0 0 0 0 0 0 0 0 0 0 0 0 0 0 0 0 0 0 0
0 0 0 0 0 0 0 0 0 0 0 0 0 0 0 0 0 0 0 0 0 0 0 0 0 0 0
0 0 0 0 0 0 0 0 0 0 0 0 0 0 0 0 0 0 0 0 0 0 0 0 0 0 0
0 0 0 0 0 0 0 0 0 0 0 0 0 0 0 0 0 0 0 0 0 0 0 0 0 0 0
0 0 0 0 0 0 0 0 0 0 0 0 0 0 0 0 0 0 0 0 0 0 0 0 0 0 0
0 0 0 0 0 0 0 0 0 0 0 0 0 0 0 0 0 0 0 0 0 0 0 0 0 0 0
0 0 0 0 0 0 0 0 0 0 0 0 0 0 0 0 0 0 0 0 0 0 0 0 0 0 0
0 0 0 0 0 0 0 0 0 0 0 0 0 0 0 0 0 0 0 0 0 0 0 0 0 0 0
0 0 0 0 0 0 0 0 0 0 0 0 0 0 0 0 0 0 0 0 0 0 0 0 1 0 0
CIN
-0 -0 -0 -0 -0 -0 -0 -0 -0 -0 -0 -0 -0 -0 -0 -0 -0 -0 -0 -0 -0 -0 -0 -0 -0 -0 -0
-0 -0 -0 -0 -0 -0 -0 -0 -0 -0 -0 -0 -0 -0 -0 -0 -0 -0 -0 -0 -0 -0 -0 -0 -0 -0 -0
-0 -0 -0 -0 -0 -0 -0 -0 -0 -0 -0 -0 -0 -0 -0 -0 -0 -0 -0 -0 -0 -0 -0 -0 -0 -0 -0
-0 -0 -0 -0 -0 -0 -0 -0 -0 -0 -0 -0 -0 -0 -0 -0 -0 -0 -0 -0 -0 -0 -0 -0 -0 -0 -0
-0 -0 -0 -0 -0 -0 -0 -0 -0 -0 -0 -0 -0 -0 -0 -0 -0 -0 -0 -0 -0 -0 -0 -0 -0 -0 -0
-0 -0 -0 -0 -0 -0 -0 -0 -0 -0 -0 -0 -0 -0 -0 -0 -0 -0 -0 -0 -0 -0 -0 -0 -0 -0 -0
-0 -0 -0 -0 -0 -0 -0 -0 -0 -0 -0 -0 -0 -0 -0 -0 -0 -0 -0 -0 -0 -0 -0 -0 -0 -0 -0
-0 -0 -0 -0 -0 -0 -0 -0 -0 -0 -0 -0 -0 -0 -0 -0 -0 -0 -0 -0 -0 -0 -0 -0 -0 -0 -0
-0 -0 -0 -0 -0 -0 -0 -0 -0 -0 -0 -0 -0 -0 -0 -0 -0 -0 -0 -0 -0 -0 -0 -0 -0 -0 -0
-0 -0 -0 -0 -0 -0 -0 -0 -0 -0 -0 -0 -0 -0 -0 -0 -0 -0 -0 -0 -0 -0 -0 -0 -0 -0 -0
-0 -0 -0 -0 -0 -0 -0 -0 -0 -0 -0 -0 -0 -0 -0 -0 -0 -0 -0 -0 -0 -0 -0 -0 -0 -0 -0
-0 -0 -0 -0 -0 -0 -0 -0 -0 -0 -0 -0 -0 -0 -0 -0 -0 -0 -0 -0 -0 -0 -0 -0 -0 -0 -0
-0 -0 -0 -0 -0 -0 -0 -0 -0 -0 -0 -0 -0 -0 -0 -0 -0 -0 -0 -0 -0 -0 -0 -0 -0 -0 -0
-0 -0 -0 -0 -0 -0 -0 -0 -0 -0 -0 -0 -0 -0 -0 -0 -0 -0 -0 -0 -0 -0 -0 -0 -0 -0 -0
-0 -0 -0 -0 -0 -0 -0 -0 -0 -0 -0 -0 -0 -0 -0 -0 -0 -0 -0 -0 -0 -0 -0 -0 -0 -0 -0
-0 -0 -0 -0 -0 -0 -0 -0 -0 -0 -0 -0 -0 -0 -0 -0 -0 -0 -0 -0 -0 -0 -0 -0 -0 -0 -0
-0 -0 -0 -0 -0 -0 -0 -0 -0 -0 -0 -0 -0 -0 -0 -0 -0 -0 -0 -0 -0 -0 -0 -0 -0 -0 -0
Wind_Speed
19 18 18 18 19 19 21 22 23 25 27 28 30 33 34 34 34 38 39 41 42 44 45 44 44 46 46
19 18 20 21 21 22 23 23 24 26 28 29 31 32 34 34 37 38 39 42 43 43 43 44 45 45 47
22 21 21 22 25 26 26 26 27 27 28 29 29 32 33 36 39 39 39 42 44 44 44 47 46 47 49
25 24 25 24 25 28 30 28 30 28 28 30 30 31 34 39 38 38 39 41 45 44 45 47 48 49 49
28 27 26 27 27 28 29 30 30 30 31 31 31 33 36 36 37 39 42 43 43 42 45 48 49 49 48
29 30 29 28 27 28 29 32 35 29 32 33 34 37 36 36 38 42 43 42 43 45 46 48 48 48 49
30 29 31 27 26 28 29 30 32 31 35 39 33 36 36 37 41 42 40 43 45 46 47 48 48 49 49
27 28 28 27 24 26 27 29 30 31 31 36 34 37 37 39 38 39 41 46 45 46 46 48 48 49 50
25 25 24 22 21 22 26 29 33 32 30 34 34 39 38 36 35 38 43 43 44 46 47 47 49 50 47
21 20 19 20 21 25 24 28 30 32 27 32 35 38 41 35 38 39 39 39 44 44 44 47 49 49 48
16 18 19 20 22 23 23 24 26 28 27 31 34 37 37 41 37 39 40 43 41 41 43 45 48 49 50
19 20 20 19 20 20 21 21 23 25 27 29 32 35 38 41 42 40 41 41 39 40 43 45 46 47 46
19 19 19 18 17 18 20 21 23 25 26 26 30 33 33 36 41 42 46 41 38 43 44 45 48 47 50
16 16 15 15 16 18 20 22 26 26 25 26 28 30 35 34 35 39 39 42 44 45 47 46 44 44 44
12 13 13 14 15 16 18 21 24 27 29 28 29 30 31 32 36 34 39 42 43 47 49 48 45 46 46
14 14 14 13 15 17 18 21 24 25 28 29 33 36 35 31 25 34 39 42 46 47 46 48 47 48 45
13 13 12 12 13 15 17 20 23 25 27 29 31 35 39 40 32 30 39 45 47 47 45 44 46 47 45
Wind_Direction
301 305 302 305 311 313 315 317 320 321 323 327 328 330 333 335 336 335 336 333 333 333 333 334 335 334 334
299 303 304 302 308 311 313 315 317 319 321 324 327 330 332 333 334 334 334 333 333 334 334 334 334 335 334
295 302 302 306 304 307 311 312 315 317 319 323 327 329 331 332 332 333 334 333 333 333 333 333 333 334 332
291 297 301 303 304 305 306 309 311 316 318 322 326 329 330 330 332 333 334 333 332 333 334 333 334 333 333
287 293 296 299 301 306 306 310 312 315 317 320 324 328 329 331 332 333 332 333 333 335 334 333 333 333 334
285 288 292 296 301 303 306 308 310 317 317 319 323 324 328 330 331 331 331 333 334 334 334 335 334 334 334
285 288 292 295 299 302 304 307 309 314 317 316 323 324 328 330 330 330 333 334 334 334 334 335 335 335 335
286 290 294 297 297 302 305 309 312 316 319 318 324 323 327 329 332 333 333 333 335 336 336 336 336 336 336
292 294 297 299 300 305 306 308 311 316 321 321 324 324 327 331 336 336 334 335 337 337 337 338 337 337 338
294 299 303 305 305 306 307 309 313 317 324 324 326 329 328 331 335 336 337 339 338 339 341 340 340 340 339
295 300 304 308 311 313 315 316 317 320 327 328 327 329 330 329 334 337 339 338 341 342 343 342 342 341 339
292 297 301 305 311 317 321 324 326 326 328 330 329 330 330 329 331 336 338 340 343 343 343 343 343 343 343
291 294 300 305 312 318 321 325 327 329 331 333 331 331 332 331 330 334 336 342 343 343 344 345 344 345 343
297 303 309 311 310 315 319 322 324 329 334 336 335 335 333 334 333 333 339 339 340 342 343 344 347 347 345
303 307 310 314 318 323 326 327 327 328 330 335 339 339 337 334 334 338 339 340 342 342 343 344 348 348 347
303 304 306 311 317 323 327 329 330 333 335 338 338 339 341 344 343 339 342 342 342 343 345 344 346 348 349
302 304 307 315 321 326 331 336 335 337 338 340 340 339 337 337 343 345 342 342 342 344 347 347 345 347 350